Location: Pedimozza
(42.0500°N, 9.3500°E)
Time: 04:52:42
(UTC+00:00)

FALCON 9 R/B - Pass Details

Date: 19 August 2019
Orbit: 290 x 10167 km, 34.5° (Epoch: 17 September)

Event Time Altitude Azimuth Distance (km) Brightness Sun altitude
Rises 20:40:07 0° 239° (WSW) 11,917 8.2 -23.3°
Reaches altitude 10° 20:52:44 10° 236° (WSW) 8,928 7.5 -24.9°
Maximum altitude 21:15:04 46° 174° (S) 2,421 4.1 -27.5°
Enters shadow 21:15:52 45° 162° (SSE) 2,291 3.9 -27.6°
